TimeCST,TemperatureF,Dew PointF,Humidity,Sea Level PressureIn,VisibilityMPH,Wind Direction,Wind SpeedMPH,Gust SpeedMPH,PrecipitationIn,Events,Conditions,WindDirDegrees,DateUTC
12:54 AM,55.0,52.0,89,29.96,10.0,South,8.1,-,N/A,,Scattered Clouds,190,2012-11-10 06:54:00
1:54 AM,57.0,52.0,83,29.96,10.0,South,10.4,-,N/A,,Mostly Cloudy,190,2012-11-10 07:54:00
2:54 AM,57.0,52.0,83,29.95,10.0,South,10.4,-,N/A,,Mostly Cloudy,190,2012-11-10 08:54:00
3:54 AM,57.9,52.0,81,29.95,10.0,South,11.5,-,N/A,,Mostly Cloudy,190,2012-11-10 09:54:00
4:54 AM,57.9,50.0,75,29.95,10.0,South,15.0,-,0.00,,Partly Cloudy,190,2012-11-10 10:54:00
5:54 AM,57.0,48.0,72,29.95,10.0,South,12.7,-,N/A,,Mostly Cloudy,180,2012-11-10 11:54:00
6:54 AM,55.0,46.9,74,29.95,10.0,South,13.8,-,N/A,,Clear,170,2012-11-10 12:54:00
7:54 AM,55.9,46.0,69,29.95,10.0,South,15.0,21.9,N/A,,Clear,170,2012-11-10 13:54:00
8:54 AM,59.0,46.9,64,29.94,10.0,South,15.0,23.0,N/A,,Clear,180,2012-11-10 14:54:00
9:54 AM,63.0,48.0,58,29.93,10.0,South,17.3,27.6,N/A,,Clear,180,2012-11-10 15:54:00
10:54 AM,66.0,51.1,59,29.93,10.0,SSW,18.4,27.6,N/A,,Clear,210,2012-11-10 16:54:00
11:54 AM,63.0,53.1,70,29.88,10.0,South,15.0,-,0.00,Rain,Light Rain,180,2012-11-10 17:54:00
12:54 PM,68.0,53.1,59,29.85,10.0,South,19.6,29.9,0.00,,Partly Cloudy,190,2012-11-10 18:54:00
1:54 PM,72.0,54.0,53,29.84,10.0,SSW,17.3,24.2,N/A,,Clear,200,2012-11-10 19:54:00
2:54 PM,72.0,54.0,53,29.83,10.0,South,19.6,31.1,N/A,,Clear,190,2012-11-10 20:54:00
3:54 PM,71.1,53.1,53,29.84,10.0,South,15.0,25.3,N/A,,Clear,170,2012-11-10 21:54:00
4:54 PM,68.0,48.9,50,29.86,10.0,South,17.3,23.0,N/A,,Clear,180,2012-11-10 22:54:00
5:54 PM,66.0,48.9,54,29.88,10.0,South,18.4,26.5,N/A,,Clear,170,2012-11-10 23:54:00
6:54 PM,64.0,50.0,60,29.88,10.0,South,17.3,27.6,N/A,,Clear,170,2012-11-11 00:54:00
7:54 PM,63.0,51.1,65,29.89,10.0,South,19.6,28.8,N/A,,Clear,180,2012-11-11 01:54:00
8:54 PM,64.0,51.1,63,29.89,10.0,South,19.6,27.6,N/A,,Clear,170,2012-11-11 02:54:00
9:54 PM,62.6,51.8,68,29.89,10.0,South,18.4,28.8,N/A,,Clear,180,2012-11-11 03:54:00
10:54 PM,61.0,50.0,67,29.88,10.0,South,18.4,-,N/A,,Clear,180,2012-11-11 04:54:00
11:54 PM,60.1,48.9,67,29.88,10.0,South,16.1,28.8,N/A,,Clear,180,2012-11-11 05:54:00